Location: Banios
(43.0451°N, 0.2335°E)
Time: 23:42:15
(UTC+00:00)

N. Korean satellite - Pass Details

Date: 05 December 2021
Orbit: 447 x 491 km, 97.3° (Epoch: 21 January)

Event Time Altitude Azimuth Distance (km) Brightness Sun altitude
Rises 04:22:56 0° 29° (NNE) 2,461 10.5 -30.6°
Reaches altitude 10° 04:25:32 10° 51° (NE) 1,580 9.7 -30.2°
Maximum altitude 04:27:47 17° 93° (E) 1,223 9.4 -29.8°
Drops below altitude 10° 04:30:02 10° 135° (SE) 1,570 9.7 -29.3°
Sets 04:32:35 0° 157° (SSE) 2,437 10.5 -28.9°
